CAPE
12 21 141 238 328 311 336 930 1824 2118 2123 2023 2073 2076 2097 2156 2142 2354 2438 2206 2301 2323 2076 1961 1778 1802 1777 1512 1473 1411 1298 871 620 544 153 12 0 115 114 24 3 0 0
0 2 20 13 67 206 268 404 627 1159 1828 1946 2005 1928 1853 1994 2167 2201 2081 2068 1994 1844 1739 1634 2039 1963 1854 1734 1573 1452 1330 989 802 240 3 62 9 244 214 22 8 5 0
0 0 0 0 12 84 183 239 463 648 942 1323 1530 1535 1746 1886 1884 1891 1999 2026 2068 1851 1625 1638 1933 2025 1883 1763 1591 1298 1282 1033 655 229 34 0 21 218 8 25 6 0 0
0 0 0 0 0 0 0 21 164 274 452 554 895 1333 1532 1493 1535 1494 1627 1824 1785 1651 1703 1650 1685 1936 1923 1792 1384 1148 1012 885 633 188 56 106 101 57 31 28 3 0 1
0 0 0 0 0 0 0 0 0 0 1 104 475 666 1154 1285 1331 1314 1399 1541 1613 1681 1628 1712 1781 1750 1760 1786 1513 956 825 760 723 584 206 136 84 111 60 82 10 4 5
0 0 0 0 0 0 0 0 0 0 0 0 0 116 516 764 1377 1398 1445 1347 1451 1566 1810 1599 1303 1426 724 816 1384 1294 1248 953 555 1073 230 185 191 164 43 9 16 5 6
0 0 0 0 0 0 0 0 0 0 0 0 0 0 0 197 475 608 646 852 1091 1159 1245 1145 1089 1106 928 520 1109 1320 1085 747 642 402 210 170 161 60 9 8 9 12 9
0 0 0 0 0 0 0 0 0 0 0 0 0 0 0 0 0 28 173 255 229 540 921 948 874 958 839 581 344 165 663 624 554 384 213 122 91 11 16 0 5 11 0
0 0 0 0 0 0 0 0 0 0 0 0 0 0 0 0 0 6 150 24 133 110 514 439 186 682 264 85 405 100 104 127 321 87 165 159 36 9 0 0 0 0 0
0 0 0 0 0 0 0 0 0 0 0 0 0 0 0 0 0 0 1 18 109 124 166 414 260 252 286 282 241 239 198 314 79 199 159 163 9 0 1 3 0 0 0
0 0 0 0 0 0 0 0 0 0 0 0 0 0 0 0 0 0 0 1 5 90 139 177 191 176 60 224 73 227 223 139 126 255 141 114 11 0 0 0 0 0 0
0 0 0 0 0 0 0 0 0 0 0 0 0 0 0 0 0 0 0 0 1 3 2 72 245 243 226 128 61 114 90 136 64 109 16 20 0 0 0 0 0 0 0
0 0 0 0 0 0 0 0 0 0 0 0 0 0 0 0 0 0 0 0 0 1 6 17 104 157 136 179 100 74 111 68 36 46 0 0 0 0 0 0 0 0 0
0 0 0 0 0 0 0 0 0 4 8 3 0 0 0 0 0 0 0 0 0 1 8 39 83 86 184 106 101 75 67 2 0 0 0 0 0 0 0 0 0 0 0
0 0 0 0 0 0 0 0 0 0 13 22 6 0 0 0 0 0 0 0 0 0 10 34 77 100 223 82 138 18 3 0 0 0 0 0 0 0 0 0 0 0 0
0 0 0 0 0 0 0 1 10 4 2 23 33 11 0 0 0 0 0 2 1 0 2 5 84 128 124 99 40 0 0 0 1 0 0 0 0 0 0 0 0 0 0
0 0 0 0 0 0 0 0 0 2 5 21 32 34 4 0 0 0 0 3 6 4 0 6 63 105 16 2 0 0 0 0 0 0 0 0 0 0 0 0 0 0 0
0 0 0 0 0 0 0 0 0 2 1 4 26 34 10 1 0 0 0 0 1 2 0 5 70 194 88 21 0 0 0 0 0 0 0 0 0 0 0 0 0 0 0
0 0 0 0 0 0 0 0 0 0 0 0 1 4 3 2 0 0 0 0 1 5 1 8 70 165 213 48 0 0 0 0 0 0 0 0 0 0 0 0 0 0 0
0 0 0 0 0 0 0 0 0 0 0 0 0 0 0 0 0 0 0 0 0 3 3 13 105 134 166 76 0 0 0 0 0 0 0 0 0 0 0 0 0 0 0
0 0 0 0 0 0 0 0 0 0 0 0 0 0 0 0 0 0 0 0 0 0 7 44 14 28 0 0 0 0 0 0 0 0 0 0 0 0 0 0 0 0 0
0 0 0 0 0 0 0 0 0 0 0 0 1 0 0 0 0 0 0 0 1 5 3 1 0 0 0 0 0 0 0 0 0 0 0 0 0 0 0 0 0 0 0
0 0 0 0 0 0 0 0 0 0 0 0 0 0 0 0 0 0 0 0 1 0 0 6 0 0 0 0 0 0 0 0 0 0 0 0 0 0 0 0 0 0 0
0 0 0 0 0 0 0 0 0 0 0 0 0 0 0 0 0 3 0 7 15 0 0 0 0 0 0 0 0 0 0 0 0 0 0 0 0 0 0 0 0 0 0
0 0 0 0 0 0 0 0 0 0 0 0 0 0 0 0 0 1 13 0 0 0 0 0 0 0 0 0 0 0 0 0 0 0 0 0 0 0 0 0 0 0 0
0 0 0 0 0 0 0 0 0 0 0 0 0 0 1 5 7 9 0 0 0 0 0 0 0 0 0 0 0 0 0 0 0 0 0 0 0 0 0 0 0 0 0
CIN
-85 -86 -63 -131 -174 -232 -217 -93 -46 -23 -27 -35 -33 -25 -25 -17 -17 -7 -6 -11 -5 -3 -4 -2 -3 -11 -20 -31 -7 0 0 0 0 0 -11 -21 0 -2 -7 -24 -2 0 0
0 -25 -37 -158 -132 -120 -147 -81 -136 -94 -35 -22 -18 -17 -35 -30 -18 -15 -20 -21 -7 -15 -9 -42 -4 -1 -15 -20 -4 -1 0 -5 0 -16 -52 -53 -97 0 0 -6 -1 0 0
0 0 0 0 -191 -150 -111 -101 -42 -59 -53 -44 -31 -49 -27 -25 -26 -20 -20 -12 -7 -16 -17 -12 -8 -4 -6 -7 -5 -9 0 0 0 -14 -10 0 -46 0 -7 -3 -8 0 0
0 0 0 0 0 0 0 -44 -43 -27 -13 -18 -26 -43 -38 -24 -30 -23 -21 -22 -16 -23 -15 -14 -8 -2 0 -3 -7 -8 -8 -2 0 -8 -31 -20 -22 -4 -4 -2 -1 0 -2
0 0 0 0 0 0 0 0 0 0 -18 -42 -52 -57 -41 -36 -33 -26 -33 -22 -13 -12 -12 -2 0 0 0 -1 0 -15 -16 0 0 -1 -7 -10 -18 -4 -5 -1 -8 -2 -2
0 0 0 0 0 0 0 0 0 0 0 0 0 -37 -38 -28 -5 -2 0 -1 -4 -6 -3 -5 -9 -2 -46 -40 0 -2 -9 -2 -1 0 -2 0 0 0 -3 -1 -1 -2 0
0 0 0 0 0 0 0 0 0 0 0 0 0 0 0 -53 -19 -8 -15 -7 -2 -2 -3 -3 -5 -5 -5 -29 0 0 0 0 0 0 0 0 0 -3 -13 -1 -2 0 -3
0 0 0 0 0 0 0 0 0 0 0 0 0 0 0 0 0 -117 -53 -31 -37 -11 0 0 0 0 0 -9 -5 -35 0 0 0 0 0 0 0 -18 0 0 0 -1 0
0 0 0 0 0 0 0 0 0 0 0 0 0 0 0 0 0 -80 -50 -107 -41 -38 0 -2 -23 0 -6 -59 0 -13 -1 -13 -1 -2 -1 0 -21 0 0 0 0 0 0
0 0 0 0 0 0 0 0 0 0 0 0 0 0 0 0 0 0 -1 -93 -42 -33 -28 -1 -2 -2 0 0 0 -1 0 0 -12 0 -1 0 -29 0 0 0 -2 0 0
0 0 0 0 0 0 0 0 0 0 0 0 0 0 0 0 0 0 0 0 -24 -23 -10 -4 -7 -2 -39 -1 -19 0 0 -2 -1 0 -2 -1 -3 0 0 0 0 0 0
0 0 0 0 0 0 0 0 0 0 0 0 0 0 0 0 0 0 0 0 0 0 0 -21 -1 0 -2 -7 -15 -5 -1 -1 -1 -3 -4 -1 0 0 0 0 0 0 0
0 0 0 0 0 0 0 0 0 0 0 0 0 0 0 0 0 0 0 0 0 0 0 -55 -15 -10 -7 -2 0 -8 -1 -8 -7 -18 0 0 0 0 0 0 0 0 0
0 0 0 0 0 0 0 0 0 -37 -20 -11 0 0 0 0 0 0 0 0 0 0 -112 -55 -21 -14 -3 -1 -2 -16 0 0 0 0 0 0 0 0 0 0 0 0 0
0 0 0 0 0 0 0 0 0 -7 -18 -10 -11 0 0 0 0 0 0 0 0 0 -61 -78 -41 -19 -1 -16 -3 -1 0 0 0 0 0 0 0 0 0 0 0 0 0
0 0 0 0 0 0 -5 -13 -26 -28 -21 -13 -8 -14 0 0 0 0 0 0 0 0 0 -51 -39 -9 0 -2 -47 0 0 0 0 0 0 0 0 0 0 0 0 0 0
0 0 0 0 0 0 0 0 -1 -13 -14 -11 -15 -14 -17 0 0 0 0 0 0 0 0 -97 -45 -16 -32 -1 0 0 0 0 0 0 0 0 0 0 0 0 0 0 0
0 0 0 0 0 0 0 0 0 -1 -6 -7 -6 -7 -10 -13 0 0 0 -1 0 0 0 -11 -20 -4 -10 -8 -1 0 0 0 0 0 0 0 0 0 0 0 0 0 0
0 0 0 0 0 0 0 0 0 0 0 0 -1 0 0 0 0 0 0 0 -1 0 0 -90 -4 -1 0 -2 0 0 0 0 0 0 0 0 0 0 0 0 0 0 0
0 0 0 0 0 0 0 0 0 0 0 0 0 0 0 0 0 0 0 0 0 -1 0 -43 -1 -2 -1 -4 0 0 0 0 0 0 0 0 0 0 0 0 0 0 0
0 0 0 0 0 0 0 0 0 0 0 0 0 0 0 0 0 0 0 0 0 0 -65 -31 -89 -15 0 0 0 0 0 0 0 0 0 0 0 0 0 0 0 0 0
0 0 0 0 0 0 0 0 0 0 0 0 0 0 0 0 0 0 0 0 0 0 -26 -66 0 0 0 0 0 0 0 0 0 0 0 0 0 0 0 0 0 0 0
0 0 0 0 0 0 0 0 0 0 0 0 0 -1 0 0 0 0 0 0 0 0 0 0 0 0 0 0 0 0 0 0 0 0 0 0 0 0 0 0 0 0 0
0 0 0 0 0 0 0 0 0 0 0 0 0 0 0 0 0 0 0 0 -95 0 -1 0 0 0 0 0 0 0 0 0 0 0 0 0 0 0 0 0 0 0 0
0 0 0 0 0 0 0 0 0 0 0 0 0 0 0 -1 0 0 -1 0 0 0 0 0 0 0 0 0 0 0 0 0 0 0 0 0 0 0 0 0 0 0 0
0 0 0 0 0 0 0 0 0 0 0 0 0 -1 -2 -3 -2 -1 0 0 0 0 0 0 0 0 0 0 0 0 0 0 0 0 0 0 0 0 0 0 0 0 0
Wind_Speed
nan nan 71 68 66 64 59 54 50 50 48 48 45 45 45 43 44 43 40 41 42 39 42 47 46 40 46 53 48 51 53 55 58 58 58 nan nan 52 49 nan nan nan nan
nan nan nan nan nan 69 66 63 62 60 55 49 49 52 55 51 50 49 47 54 57 51 48 47 37 44 47 47 51 52 53 57 58 57 nan nan nan 59 52 nan nan nan nan
nan nan nan nan nan nan 73 69 63 64 61 58 56 59 56 53 54 50 45 44 45 46 45 45 36 43 46 47 52 52 55 52 53 73 nan nan nan 60 nan nan nan nan nan
nan nan nan nan nan nan nan nan 69 65 67 65 62 55 57 55 54 53 50 48 50 46 43 44 40 44 50 54 56 55 57 57 56 60 nan 60 60 nan nan nan nan nan nan
nan nan nan nan nan nan nan nan nan nan nan 60 67 64 63 53 58 55 56 56 55 61 48 47 48 49 53 57 59 60 64 62 55 59 62 61 nan 63 nan nan nan nan nan
nan nan nan nan nan nan nan nan nan nan nan nan nan 68 67 67 63 56 58 63 63 63 53 60 55 54 58 56 57 61 63 64 63 62 62 61 61 59 nan nan nan nan nan
nan nan nan nan nan nan nan nan nan nan nan nan nan nan nan 59 62 61 57 62 64 62 63 63 62 64 69 68 63 66 65 65 65 64 64 62 59 nan nan nan nan nan nan
nan nan nan nan nan nan nan nan nan nan nan nan nan nan nan nan nan nan 57 54 56 57 59 60 61 64 64 68 67 65 64 66 63 63 65 65 nan nan nan nan nan nan nan
nan nan nan nan nan nan nan nan nan nan nan nan nan nan nan nan nan nan 61 nan 57 57 56 57 56 56 59 nan 67 68 70 68 72 nan 82 80 nan nan nan nan nan nan nan
nan nan nan nan nan nan nan nan nan nan nan nan nan nan nan nan nan nan nan nan 66 67 66 65 64 62 64 65 66 68 67 66 nan 75 75 74 nan nan nan nan nan nan nan
nan nan nan nan nan nan nan nan nan nan nan nan nan nan nan nan nan nan nan nan nan nan 69 67 65 70 nan 69 nan 67 71 72 81 76 71 69 nan nan nan nan nan nan nan
nan nan nan nan nan nan nan nan nan nan nan nan nan nan nan nan nan nan nan nan nan nan nan nan 69 73 73 74 nan 84 nan 76 nan 64 nan nan nan nan nan nan nan nan nan
nan nan nan nan nan nan nan nan nan nan nan nan nan nan nan nan nan nan nan nan nan nan nan nan 79 76 74 73 77 nan 68 nan nan nan nan nan nan nan nan nan nan nan nan
nan nan nan nan nan nan nan nan nan nan nan nan nan nan nan nan nan nan nan nan nan nan nan nan nan nan 66 67 68 nan nan nan nan nan nan nan nan nan nan nan nan nan nan
nan nan nan nan nan nan nan nan nan nan nan nan nan nan nan nan nan nan nan nan nan nan nan nan nan 58 56 nan 54 nan nan nan nan nan nan nan nan nan nan nan nan nan nan
nan nan nan nan nan nan nan nan nan nan nan nan nan nan nan nan nan nan nan nan nan nan nan nan nan 50 49 nan nan nan nan nan nan nan nan nan nan nan nan nan nan nan nan
nan nan nan nan nan nan nan nan nan nan nan nan nan nan nan nan nan nan nan nan nan nan nan nan nan 46 nan nan nan nan nan nan nan nan nan nan nan nan nan nan nan nan nan
nan nan nan nan nan nan nan nan nan nan nan nan nan nan nan nan nan nan nan nan nan nan nan nan nan 52 nan nan nan nan nan nan nan nan nan nan nan nan nan nan nan nan nan
nan nan nan nan nan nan nan nan nan nan nan nan nan nan nan nan nan nan nan nan nan nan nan nan nan 57 51 nan nan nan nan nan nan nan nan nan nan nan nan nan nan nan nan
nan nan nan nan nan nan nan nan nan nan nan nan nan nan nan nan nan nan nan nan nan nan nan nan 54 54 58 nan nan nan nan nan nan nan nan nan nan nan nan nan nan nan nan
nan nan nan nan nan nan nan nan nan nan nan nan nan nan nan nan nan nan nan nan nan nan nan nan nan nan nan nan nan nan nan nan nan nan nan nan nan nan nan nan nan nan nan
nan nan nan nan nan nan nan nan nan nan nan nan nan nan nan nan nan nan nan nan nan nan nan nan nan nan nan nan nan nan nan nan nan nan nan nan nan nan nan nan nan nan nan
nan nan nan nan nan nan nan nan nan nan nan nan nan nan nan nan nan nan nan nan nan nan nan nan nan nan nan nan nan nan nan nan nan nan nan nan nan nan nan nan nan nan nan
nan nan nan nan nan nan nan nan nan nan nan nan nan nan nan nan nan nan nan nan nan nan nan nan nan nan nan nan nan nan nan nan nan nan nan nan nan nan nan nan nan nan nan
nan nan nan nan nan nan nan nan nan nan nan nan nan nan nan nan nan nan nan nan nan nan nan nan nan nan nan nan nan nan nan nan nan nan nan nan nan nan nan nan nan nan nan
nan nan nan nan nan nan nan nan nan nan nan nan nan nan nan nan nan nan nan nan nan nan nan nan nan nan nan nan nan nan nan nan nan nan nan nan nan nan nan nan nan nan nan
Wind_Direction
nan nan 249 251 251 250 249 244 246 254 259 269 264 264 263 268 271 274 276 277 280 282 281 283 294 293 291 289 285 282 285 291 291 291 281 nan nan 300 303 nan nan nan nan
nan nan nan nan nan 249 248 242 241 240 246 254 261 266 268 270 267 271 272 266 268 270 278 283 288 286 298 283 285 287 288 293 290 292 nan nan nan 300 301 nan nan nan nan
nan nan nan nan nan nan 253 253 250 248 244 249 254 260 264 266 267 268 269 270 278 275 280 283 275 286 293 285 285 286 287 288 291 280 nan nan nan 296 nan nan nan nan nan
nan nan nan nan nan nan nan nan 250 255 254 255 246 248 258 260 262 268 267 276 285 277 277 284 282 287 290 288 286 287 286 286 287 282 nan 289 293 nan nan nan nan nan nan
nan nan nan nan nan nan nan nan nan nan nan 254 250 253 251 256 263 263 263 274 274 275 274 275 274 285 289 289 285 287 288 288 289 289 288 290 nan 297 nan nan nan nan nan
nan nan nan nan nan nan nan nan nan nan nan nan nan 248 249 252 252 261 268 270 274 276 276 273 277 279 278 279 281 288 293 294 292 289 290 292 293 294 nan nan nan nan nan
nan nan nan nan nan nan nan nan nan nan nan nan nan nan nan 246 246 250 256 264 269 273 273 271 269 272 276 277 275 278 280 281 287 290 292 289 291 nan nan nan nan nan nan
nan nan nan nan nan nan nan nan nan nan nan nan nan nan nan nan nan nan 252 256 262 269 270 273 274 273 275 278 277 276 275 276 280 281 284 284 nan nan nan nan nan nan nan
nan nan nan nan nan nan nan nan nan nan nan nan nan nan nan nan nan nan 254 nan 258 257 263 268 272 272 275 nan 277 275 274 274 277 nan 282 284 nan nan nan nan nan nan nan
nan nan nan nan nan nan nan nan nan nan nan nan nan nan nan nan nan nan nan nan 261 260 260 262 262 268 270 271 275 278 276 278 nan 279 281 281 nan nan nan nan nan nan nan
nan nan nan nan nan nan nan nan nan nan nan nan nan nan nan nan nan nan nan nan nan nan 261 261 261 270 nan 275 nan 276 279 282 281 283 282 280 nan nan nan nan nan nan nan
nan nan nan nan nan nan nan nan nan nan nan nan nan nan nan nan nan nan nan nan nan nan nan nan 263 268 270 269 nan 279 nan 279 nan 285 nan nan nan nan nan nan nan nan nan
nan nan nan nan nan nan nan nan nan nan nan nan nan nan nan nan nan nan nan nan nan nan nan nan 271 270 269 269 278 nan 279 nan nan nan nan nan nan nan nan nan nan nan nan
nan nan nan nan nan nan nan nan nan nan nan nan nan nan nan nan nan nan nan nan nan nan nan nan nan nan 269 272 275 nan nan nan nan nan nan nan nan nan nan nan nan nan nan
nan nan nan nan nan nan nan nan nan nan nan nan nan nan nan nan nan nan nan nan nan nan nan nan nan 262 266 nan 264 nan nan nan nan nan nan nan nan nan nan nan nan nan nan
nan nan nan nan nan nan nan nan nan nan nan nan nan nan nan nan nan nan nan nan nan nan nan nan nan 255 258 nan nan nan nan nan nan nan nan nan nan nan nan nan nan nan nan
nan nan nan nan nan nan nan nan nan nan nan nan nan nan nan nan nan nan nan nan nan nan nan nan nan 251 nan nan nan nan nan nan nan nan nan nan nan nan nan nan nan nan nan
nan nan nan nan nan nan nan nan nan nan nan nan nan nan nan nan nan nan nan nan nan nan nan nan nan 255 nan nan nan nan nan nan nan nan nan nan nan nan nan nan nan nan nan
nan nan nan nan nan nan nan nan nan nan nan nan nan nan nan nan nan nan nan nan nan nan nan nan nan 259 251 nan nan nan nan nan nan nan nan nan nan nan nan nan nan nan nan
nan nan nan nan nan nan nan nan nan nan nan nan nan nan nan nan nan nan nan nan nan nan nan nan 240 250 256 nan nan nan nan nan nan nan nan nan nan nan nan nan nan nan nan
nan nan nan nan nan nan nan nan nan nan nan nan nan nan nan nan nan nan nan nan nan nan nan nan nan nan nan nan nan nan nan nan nan nan nan nan nan nan nan nan nan nan nan
nan nan nan nan nan nan nan nan nan nan nan nan nan nan nan nan nan nan nan nan nan nan nan nan nan nan nan nan nan nan nan nan nan nan nan nan nan nan nan nan nan nan nan
nan nan nan nan nan nan nan nan nan nan nan nan nan nan nan nan nan nan nan nan nan nan nan nan nan nan nan nan nan nan nan nan nan nan nan nan nan nan nan nan nan nan nan
nan nan nan nan nan nan nan nan nan nan nan nan nan nan nan nan nan nan nan nan nan nan nan nan nan nan nan nan nan nan nan nan nan nan nan nan nan nan nan nan nan nan nan
nan nan nan nan nan nan nan nan nan nan nan nan nan nan nan nan nan nan nan nan nan nan nan nan nan nan nan nan nan nan nan nan nan nan nan nan nan nan nan nan nan nan nan
nan nan nan nan nan nan nan nan nan nan nan nan nan nan nan nan nan nan nan nan nan nan nan nan nan nan nan nan nan nan nan nan nan nan nan nan nan nan nan nan nan nan nan